"Pseudo-MPEC" for C3L5732

Created 2020 Oct 19 5:07:13 UT using Find_Orb

Click here for an explanation of pseudo-MPECs

 
 Astrometry: 
     C3L5732  C2020 10 11wy-h./D-;O^3]5v9'e-Lr^J^Ec;5,l5:[Astrometryw#Y*uu34.F52
     C3L5732  C2020 10 11JI_d*$q0P/N!nsdccqUxejuhJ%=ylQaTFZ_%RoU;D0/quLZF\2eLF52
     C3L5732  C2020 10 11--PfJ)XkOredacted;Vk/op;eWc6@4emIeO[PUi]`click/.ihdZF52
     C3L5732  C2020 10 13q@jvBUVSrGs,2@URo7(%Z@ei(T1li(focVE_e87#1DiRSA!herejF52
     C3L5732  C2020 10 13$$DEnYri8^%I)dh_bgJR?#suHQULu!t!!.MDJ@\Oie9W%o7g\asVF52
     C3L5732  C2020 10 13?GQAx,GNaBOPW`Twv)for@bvQAkibM*\]#]4x[uF/\B9SLJm!j/AF52
     C3L5732  C2020 10 17.25564800 58 44.05 +00 04 46.5    ~AH77 20.86GVNEOCPG96
     C3L5732  C2020 10 17.26080000 58 43.52 +00 04 06.9    ~AH77 21.69GVNEOCPG96
     C3L5732  C2020 10 17.26594700 58 43.00 +00 03 27.4    ~AH77 20.92GVNEOCPG96
     C3L5732  C2020 10 17.27109700 58 42.43 +00 02 46.9    ~AH77 21.44GVNEOCPG96
     C3L5732 KC2020 10 17.35296700 58 33.79 -00 07 47.0    ~AH8q 21.11GVNEOCPV06
     C3L5732 KC2020 10 17.35482200 58 33.60 -00 08 01.7    ~AH8q 20.99GVNEOCPV06
     C3L5732  C2020 10 17,+LMPo5#K;W.OVD$-;xnJJaPKQ9F]xMdNBT+v%FThPdfT@sIt=BDF52
     C3L5732 KC2020 10 17.35668100 58 33.42 -00 08 16.4    ~AH8q 21.14GVNEOCPV06
     C3L5732 KC2020 10 17.35853600 58 33.21 -00 08 30.8    ~AH8q 20.99GVNEOCPV06
     C3L5732  C2020 10 17YrJdepcCfk@tvwJBM4.[.'+LUn5@$_NVrvmlqD.KAYmnGU)V64(lF52
     C3L5732  C2020 10 17kQFKJZex6gJg[^%%c^0H+eQ;U@xG1)GkTKL?JaN)BEA!J*Ub:#GYF52
     C3L5732  C2020 10 17.c5Na\9j^+x/1r3'YbeUa,01keM_Bt?P]TYDjrhNWg8B9KJrgi'NF52
     C3L5732 KC2020 10 18.22052600 57 34.10 -02 11 52.0    ~AI5q       VNEOCPI52
     C3L5732 KC2020 10 18.22408900 57 33.71 -02 12 25.0    ~AI5q 20.68GVNEOCPI52
     C3L5732 KC2020 10 18.22765100 57 33.31 -02 12 59.4    ~AI5q 20.71GVNEOCPI52
     C3L5732 KC2020 10 18O79@VfZxayND--CwZe7,ZEC^q1MR_ViywE?1w0L%=3nmgN_NFssjL01
     C3L5732 KC2020 10 18WE!^w:nAmE@3VmfDr]Wt,%4dj[7=%HZ,:tT5BU/VMCKuZ]I@b?UcL01
     C3L5732 KC2020 10 186='oeCOK7#%E%6T\c1Y5,9r/44)i:explanationlY1sNvq#!bZiL01
     C3L5732 KC2020 10 18,%4BBEU1+H]o\qxKej*v2L5iMQJT@*:y6BkSI9kvbpGNa,$%rQnbL01

Station data:
(F52) Pan-STARRS 2, Haleakala  (N20.707384 W156.255910)  US/Hawaii. 1.8-m
   Ritchey-Chrétien + CCD.
(G96) Mt. Lemmon Survey  (N32.442754 W110.788720)  US/Arizona.  Observers T.
   A. Pruyne, B. M. Africano, E. J. Christensen, G. A. Farneth, D. C. Fuls,
   A. R. Gibbs, A. D. Grauer, H. Gröller, J. A. Johnson, R. A. Kowalski, S.
   M. Larson, G. J. Leonard, D. Rankin, R. L. Seaman, F. C. Shelly. 1.5-m
   reflector + 10K CCD.
(I52) Steward Observatory, Mt. Lemmon Station  (N32.442547 W110.788920)
   US/Arizona.  Observers T. A. Pruyne, B. M. Africano, E. J. Christensen, G.
   A. Farneth, D. C. Fuls, A. R. Gibbs, A. D. Grauer, H. Gröller, J. A.
   Johnson, R. A. Kowalski, S. M. Larson, G. J. Leonard, D. Rankin, R. L.
   Seaman, F. C. Shelly. 1.0-m reflector + CCD.
(L01) Višnjan Observatory, Tičan  (N45.290900 E13.749300)  Croatia.
   Observers K. Korlević, E. Pettarin. Measurer E. Pettarin. 1.0-m f/2.9
   reflector + CCD.
(V06) Catalina Sky Survey-Kuiper  (N32.416847 W110.732550)  US/Arizona.
   Observers T. A. Pruyne, B. M. Africano, E. J. Christensen, G. A. Farneth,
   D. C. Fuls, A. R. Gibbs, A. D. Grauer, H. Gröller, J. A. Johnson, R. A.
   Kowalski, S. M. Larson, G. J. Leonard, D. Rankin, R. L. Seaman, F. C.
   Shelly. 1.55-m reflector + CCD.

Orbital elements:  C3L5732
   Perihelion 2020 Dec 10.891537 +/- 0.0507 TT = 21:23:48 (JD 2459194.391537)
Epoch 2020 Oct 18.0 TT = JDT 2459140.5   Earth MOID: 0.0233   Ve: 0.0830
M 338.00145991 +/- 0.14             Ma: 0.0511                AutoNEOCP
n   0.40820026 +/- 0.00237          Peri.  265.31994 +/- 0.0011
a   1.79978457 +/- 0.00696          Node   199.26038 +/- 0.0007
e   0.5904831 +/- 0.00188           Incl.    6.12825 +/- 0.019
P   2.41/881.90d           H 26.0   G  0.15   U  8.7  
q 0.73704211 +/- 0.000531    Q 2.86252702 +/- 0.0143
From 25 observations 2020 Oct. 11-18; mean residual 0".29
Residuals in arcseconds: 
201011 F52  .21+  .11+    201017 G96  .07-  .75-    201018 I52  .51-  .03-    
201011 F52  .60-  .19+    201017 V06  .03-  .10+    201018 I52  .15+  .55+    
201011 F52  .20+  .16+    201017 V06  .01-  .09-    201018 I52  .68+  .26-    
201013 F52  .09-  .73-    201017 F52  .06+  .36+    201018 L01  .16-  .04-    
201013 F52  .16+  .41-    201017 V06  .16+  .25-    201018 L01  .19+  .35-    
201013 F52  .13+  .47+    201017 V06  .12-  .13-    201018 L01  .34-  .16+    
201017 G96  .27-  .25+    201017 F52  .04+  .01-    201018 L01  .03+  .09-    
201017 G96  .06-  .16+    201017 F52  .24-  .44+    
201017 G96  .30+  .17+    201017 F52  .14+  .01-    

Ephemerides (geocentric):
Date (UTC) HH   RA              Dec         delta   r     elong  mag " sig PA
---- -- -- --  -------------   -----------  ------ ------ -----  --- ---- ---
2020 10 19 05  00 56 02.354   -05 04 26.96  .06500 1.0580 161.9 21.1 .325 177
2020 10 19 06  00 55 58.116   -05 12 42.42  .06466 1.0576 161.7 21.0 .330 178
2020 10 19 07  00 55 53.835   -05 21 02.95  .06433 1.0572 161.5 21.0 .336 178
2020 10 19 08  00 55 49.511   -05 29 28.62  .06400 1.0568 161.4 21.0 .342 179
2020 10 19 09  00 55 45.144   -05 37 59.52  .06366 1.0564 161.2 21.0 .348 179
2020 10 19 10  00 55 40.732   -05 46 35.70  .06333 1.0560 161.0 21.0 .354 179
2020 10 19 11  00 55 36.275   -05 55 17.26  .06300 1.0557 160.9 21.0 .360   0
2020 10 19 12  00 55 31.772   -06 04 04.25  .06267 1.0553 160.7 21.0 .366   0
2020 10 19 13  00 55 27.223   -06 12 56.78  .06234 1.0549 160.5 21.0 .373   0
2020 10 19 14  00 55 22.626   -06 21 54.90  .06200 1.0545 160.4 21.0 .379   1
2020 10 19 15  00 55 17.981   -06 30 58.72  .06167 1.0541 160.2 21.0 .386   1
2020 10 19 16  00 55 13.287   -06 40 08.30  .06134 1.0537 160.0 21.0 .393   2
2020 10 19 17  00 55 08.544   -06 49 23.73  .06101 1.0534 159.9 21.0 .401   2
2020 10 19 18  00 55 03.749   -06 58 45.10  .06069 1.0530 159.7 21.0 .408   2
2020 10 19 19  00 54 58.903   -07 08 12.49  .06036 1.0526 159.5 21.0 .415   3
2020 10 19 20  00 54 54.005   -07 17 46.00  .06003 1.0522 159.3 21.0 .423   3
2020 10 19 21  00 54 49.053   -07 27 25.72  .05970 1.0518 159.1 20.9 .431   3
2020 10 19 22  00 54 44.047   -07 37 11.73  .05938 1.0514 159.0 20.9 .439   4
2020 10 19 23  00 54 38.986   -07 47 04.13  .05905 1.0511 158.8 20.9 .447   4
2020 10 20 00  00 54 33.869   -07 57 03.01  .05872 1.0507 158.6 20.9 .456   4
2020 10 20 01  00 54 28.695   -08 07 08.47  .05840 1.0503 158.4 20.9 .464   5
2020 10 20 02  00 54 23.462   -08 17 20.62  .05807 1.0499 158.2 20.9 .473   5
2020 10 20 03  00 54 18.170   -08 27 39.54  .05775 1.0495 158.0 20.9 .482   5
2020 10 20 04  00 54 12.818   -08 38 05.35  .05743 1.0491 157.8 20.9 .491   6
2020 10 20 05  00 54 07.404   -08 48 38.14  .05710 1.0488 157.6 20.9 .501   6
2020 10 20 06  00 54 01.928   -08 59 18.02  .05678 1.0484 157.4 20.9 .510   6
2020 10 20 07  00 53 56.388   -09 10 05.10  .05646 1.0480 157.2 20.9 .520   7
2020 10 20 08  00 53 50.783   -09 20 59.48  .05614 1.0476 157.0 20.9 .530   7
2020 10 20 09  00 53 45.113   -09 32 01.29  .05582 1.0472 156.8 20.9 .541   7
2020 10 20 10  00 53 39.374   -09 43 10.62  .05550 1.0468 156.6 20.9 .551   8
2020 10 20 11  00 53 33.568   -09 54 27.61  .05518 1.0465 156.4 20.8 .562   8
2020 10 20 12  00 53 27.691   -10 05 52.35  .05486 1.0461 156.2 20.8 .573   8
2020 10 20 13  00 53 21.743   -10 17 24.98  .05454 1.0457 156.0 20.8 .584   8
2020 10 20 14  00 53 15.722   -10 29 05.61  .05423 1.0453 155.8 20.8 .596   9
2020 10 20 15  00 53 09.628   -10 40 54.37  .05391 1.0449 155.6 20.8 .607   9
2020 10 20 16  00 53 03.458   -10 52 51.38  .05359 1.0445 155.4 20.8 .619   9
2020 10 20 17  00 52 57.211   -11 04 56.76  .05328 1.0442 155.1 20.8 .632  10
2020 10 20 18  00 52 50.885   -11 17 10.66  .05296 1.0438 154.9 20.8 .644  10
2020 10 20 19  00 52 44.480   -11 29 33.20  .05265 1.0434 154.7 20.8 .657  10
2020 10 20 20  00 52 37.992   -11 42 04.51  .05234 1.0430 154.5 20.8 .670  10
2020 10 20 21  00 52 31.422   -11 54 44.73  .05203 1.0426 154.2 20.8 .683  11
2020 10 20 22  00 52 24.766   -12 07 34.00  .05171 1.0423 154.0 20.8 .697  11
2020 10 20 23  00 52 18.024   -12 20 32.46  .05140 1.0419 153.8 20.8 .711  11
2020 10 21 00  00 52 11.193   -12 33 40.25  .05109 1.0415 153.5 20.8 .725  11
2020 10 21 01  00 52 04.271   -12 46 57.52  .05079 1.0411 153.3 20.7 .739  12
2020 10 21 02  00 51 57.257   -13 00 24.42  .05048 1.0407 153.1 20.7 .754  12
2020 10 21 03  00 51 50.150   -13 14 01.09  .05017 1.0403 152.8 20.7 .769  12
2020 10 21 04  00 51 42.945   -13 27 47.69  .04986 1.0400 152.6 20.7 .785  12